Tracking 17145 objects as of 30-May-2015
HD Live streaming from Space Station

GOES 7

Track GOES 7 now!
GOES 7 is classified as:


NORAD ID: 17561
Int'l Code: 1987-022A
Perigee: 35,898.5 km
Apogee: 35,900.4 km
Inclination: 14.9 °
Period: 1,441.5 minutes
Semi major axis: 42270 km
RCS: 10.3409 m2 (large)
Launch date: February 26, 1987
Source: United States (US)
Your satellite tracking list
Your tracking list is empty





NASA's NSSDC Master Catalog

Two Line Element Set (TLE):
1 17561U 87022A   15148.61805649 -.00000310  00000-0  00000+0 0  9991
2 17561 014.9301 013.9082 0000227 295.8607 266.9553 00.99895864 86649

Source of the keplerian elements: AFSPC

N2YO: 292